Total_Precipitation_Accumulation
0.46 0.43 0.44 0.40 0.40 0.40 0.42 0.51 0.69 0.55 0.23 0.12 0.11 0.11 0.14 0.18 0.17 0.15 0.13 0.17 0.22 0.26 0.31 0.35 0.42 0.60 0.92 1.41 1.99 2.89 3.49 3.15 2.39 1.87 1.75 2.02 2.43 2.89
0.53 0.52 0.47 0.44 0.46 0.48 0.50 0.49 0.55 0.64 0.44 0.15 0.12 0.12 0.16 0.23 0.24 0.19 0.17 0.19 0.20 0.21 0.22 0.24 0.30 0.42 0.65 0.97 1.38 1.96 2.85 3.34 3.13 2.63 2.20 2.24 2.40 2.75
0.56 0.55 0.51 0.50 0.57 0.60 0.63 0.59 0.53 0.55 0.56 0.24 0.15 0.16 0.23 0.30 0.29 0.22 0.20 0.18 0.15 0.17 0.19 0.22 0.26 0.34 0.50 0.72 0.98 1.34 1.98 2.75 3.20 3.24 2.88 2.59 2.50 2.54
0.60 0.60 0.58 0.56 0.60 0.65 0.71 0.70 0.61 0.53 0.58 0.43 0.24 0.23 0.29 0.36 0.38 0.30 0.24 0.20 0.14 0.15 0.18 0.23 0.29 0.35 0.44 0.58 0.76 1.01 1.37 1.94 2.52 2.95 3.04 2.74 2.57 2.59
0.61 0.65 0.66 0.66 0.62 0.63 0.73 0.77 0.71 0.62 0.62 0.59 0.38 0.26 0.28 0.37 0.45 0.40 0.32 0.28 0.21 0.18 0.20 0.22 0.26 0.33 0.40 0.48 0.63 0.81 0.99 1.20 1.64 2.25 2.83 2.92 2.72 2.66
0.55 0.56 0.65 0.76 0.78 0.81 0.83 0.81 0.82 0.83 0.78 0.73 0.56 0.40 0.36 0.39 0.52 0.55 0.47 0.39 0.33 0.27 0.24 0.22 0.25 0.31 0.35 0.38 0.42 0.54 0.73 1.01 1.32 1.78 2.28 2.70 2.77 2.71
0.53 0.50 0.59 0.79 0.96 1.13 1.18 1.06 1.06 1.13 1.06 0.98 0.86 0.68 0.54 0.53 0.59 0.60 0.66 0.55 0.49 0.40 0.31 0.24 0.24 0.23 0.23 0.29 0.34 0.40 0.53 0.73 0.99 1.33 1.76 2.16 2.49 2.67
0.58 0.50 0.55 0.76 0.90 1.00 1.12 1.11 1.15 1.30 1.36 1.28 1.13 0.92 0.67 0.55 0.58 0.70 0.83 0.89 0.75 0.55 0.44 0.35 0.32 0.29 0.24 0.22 0.27 0.34 0.44 0.60 0.80 1.06 1.37 1.71 2.08 2.43
0.56 0.52 0.54 0.64 0.75 0.79 0.84 0.86 0.90 1.05 1.26 1.36 1.31 1.00 0.79 0.66 0.77 0.89 0.91 0.99 0.88 0.80 0.77 0.67 0.45 0.37 0.29 0.30 0.34 0.35 0.42 0.52 0.65 0.84 1.11 1.39 1.70 2.06
0.57 0.53 0.49 0.53 0.64 0.79 0.85 0.80 0.74 0.82 1.05 1.25 1.42 1.23 1.03 1.00 1.16 1.32 1.32 1.27 1.08 1.01 0.99 1.05 0.73 0.52 0.42 0.37 0.38 0.34 0.38 0.46 0.55 0.67 0.88 1.11 1.35 1.68
0.59 0.55 0.49 0.47 0.62 0.77 0.75 0.70 0.64 0.69 0.81 1.01 1.15 1.17 1.16 1.27 1.48 1.78 1.84 1.74 1.46 1.19 1.09 1.11 1.05 0.91 0.79 0.64 0.52 0.44 0.39 0.42 0.49 0.59 0.72 0.89 1.12 1.48
0.59 0.55 0.59 0.59 0.68 0.71 0.65 0.67 0.74 0.68 0.64 0.67 0.70 0.73 0.77 0.88 1.20 1.59 1.81 1.84 1.62 1.52 1.32 1.18 1.23 1.25 1.40 1.12 0.80 0.57 0.45 0.45 0.48 0.54 0.61 0.70 0.90 1.10
0.60 0.59 0.53 0.65 0.68 0.66 0.65 0.65 0.80 0.75 0.65 0.70 0.70 0.63 0.60 0.67 0.83 1.12 1.53 1.83 1.83 1.65 1.44 1.45 1.58 1.33 1.37 1.34 1.06 0.78 0.55 0.47 0.47 0.54 0.59 0.64 0.73 0.83
0.58 0.53 0.49 0.60 0.64 0.67 0.64 0.68 0.72 0.71 0.65 0.63 0.59 0.55 0.56 0.62 0.74 0.90 1.14 1.43 1.60 1.54 1.37 1.50 1.82 1.52 1.28 1.14 1.05 0.97 0.73 0.60 0.51 0.50 0.52 0.68 0.78 0.81
0.67 0.69 0.62 0.67 0.68 0.60 0.57 0.60 0.59 0.54 0.59 0.61 0.54 0.48 0.51 0.61 0.67 0.74 0.83 1.04 1.24 1.28 1.30 1.39 1.64 1.64 1.46 1.22 0.92 0.86 0.85 0.83 0.67 0.59 0.56 0.57 0.60 0.64
0.78 0.76 0.73 0.71 0.66 0.59 0.54 0.47 0.42 0.44 0.52 0.56 0.52 0.46 0.45 0.50 0.59 0.70 0.80 0.90 1.10 1.18 1.24 1.39 1.64 1.84 1.73 1.22 0.97 0.83 0.73 0.89 0.86 0.72 0.64 0.61 0.57 0.51
0.85 0.84 0.75 0.69 0.69 0.62 0.50 0.40 0.36 0.38 0.43 0.44 0.48 0.49 0.48 0.49 0.52 0.60 0.79 0.91 1.05 1.11 1.22 1.46 1.72 1.83 1.85 1.61 1.29 0.94 0.71 0.71 0.79 0.76 0.73 0.74 0.72 0.61
0.88 0.84 0.66 0.55 0.53 0.50 0.45 0.39 0.35 0.33 0.33 0.38 0.44 0.47 0.50 0.53 0.55 0.57 0.70 0.88 1.00 1.06 1.12 1.30 1.64 1.87 1.99 1.96 1.56 1.11 0.84 0.77 0.87 0.87 0.79 0.77 0.84 0.78
0.73 0.61 0.51 0.44 0.42 0.40 0.38 0.36 0.34 0.30 0.32 0.37 0.40 0.42 0.45 0.51 0.55 0.58 0.63 0.76 0.88 0.99 1.09 1.19 1.44 1.75 1.89 1.97 1.91 1.42 1.04 0.90 1.00 1.13 1.01 0.80 0.74 0.78
0.53 0.49 0.46 0.42 0.42 0.43 0.41 0.40 0.37 0.35 0.35 0.35 0.35 0.36 0.41 0.48 0.53 0.54 0.59 0.72 0.81 0.90 1.00 1.09 1.31 1.57 1.73 1.66 1.69 1.65 1.46 1.16 1.04 1.20 1.20 1.02 0.89 0.96
0.47 0.45 0.43 0.44 0.45 0.45 0.42 0.40 0.39 0.36 0.32 0.32 0.32 0.31 0.33 0.41 0.46 0.46 0.53 0.61 0.70 0.80 0.87 0.95 1.13 1.32 1.54 1.57 1.46 1.39 1.56 1.58 1.23 1.14 1.21 1.22 1.16 1.15
0.44 0.45 0.44 0.46 0.48 0.48 0.46 0.43 0.41 0.37 0.33 0.32 0.31 0.29 0.30 0.35 0.40 0.42 0.48 0.54 0.59 0.68 0.78 0.87 0.99 1.19 1.45 1.60 1.50 1.33 1.44 1.65 1.64 1.41 1.27 1.18 1.16 1.11
0.48 0.49 0.49 0.47 0.48 0.48 0.47 0.44 0.41 0.36 0.33 0.31 0.31 0.30 0.30 0.32 0.33 0.39 0.45 0.49 0.55 0.59 0.69 0.84 0.98 1.12 1.35 1.51 1.52 1.38 1.33 1.44 1.49 1.46 1.55 1.35 0.97 0.73